Regional Weather Roundup
Issued by NWS

Home | Current Version | Previous Version | Graphics & Text | Print | Product List | Glossary On
Versions: 1 2 3 4 5 6 7 8 9 10 11 12 13 14 15 16 17 18 19 20 21 22 23 24 25 26 27 28
000
ASUS45 KPSR 100510
RWRAZ

ARIZONA HOURLY REGIONAL WEATHER ROUNDUP
NATIONAL WEATHER SERVICE PHOENIX AZ
1000 PM MST SAT DEC 09 2017

NOTE: FAIR INDICATES FEW OR NO CLOUDS BELOW 12,000 FEET WITH NO
SIGNIFICANT WEATHER AND/OR OBSTRUCTIONS TO VISIBILITY.

AZZ001>003-036-100600-
NORTHWEST ARIZONA

CITY           SKY/WX    TMP DP  RH WIND       PRES   REMARKS
BULLHEAD CITY  CLEAR     64   9  11 N18G28    30.30R
KINGMAN        CLEAR     42   5  21 CALM      30.40R
$$

AZZ004>008-015-016-018-100600-
NORTH CENTRAL ARIZONA

CITY           SKY/WX    TMP DP  RH WIND       PRES   REMARKS
GRAND CANYON   PTCLDY    20  -2  38 NE5       30.52R WCI  13
WILLIAMS       CLEAR     32   0  25 S8        30.46R WCI  25
PRESCOTT       PTCLDY    33   6  32 S5        30.42R WCI  29
FLAGSTAFF      PTCLDY    22  -1  36 CALM      30.50S
PAYSON         CLEAR     46   1  15 E5        30.41S
PAGE           CLEAR     37  15  40 CALM      30.51R
$$

AZZ009>014-017-100600-
NORTHEAST ARIZONA

CITY           SKY/WX    TMP DP  RH WIND       PRES   REMARKS
WINSLOW        PTCLDY    27  -1  30 SW6       30.50R WCI  20
SAINT JOHNS    CLEAR     30   5  34 S6        30.49R WCI  24
WINDOW ROCK    CLEAR     19  -3  38 S5        30.51R WCI  12
SHOW LOW       PTCLDY    27   1  33 CALM      30.50S
$$

AZZ540-542>544-546-548-100600-
GREATER PHOENIX AREA

CITY           SKY/WX    TMP DP  RH WIND       PRES   REMARKS
PHOENIX        MOCLDY    65  18  16 E15       30.22S
BUCKEYE        PTCLDY    63  14  15 NE12      30.24R
LUKE AFB       PTCLDY    50  29  43 N10       30.23R
DEER VALLEY    PTCLDY    64  12  13 E9        30.25S
SCOTTSDALE     PTCLDY    64  17  16 NE6       30.27S
MESA-GATEWAY   MOCLDY    59  16  18 NE10      30.25F
$$

AZZ539-553-100600-
SOUTHWEST MARICOPA COUNTY AND PINAL COUNTY

CITY           SKY/WX    TMP DP  RH WIND       PRES   REMARKS
CASA GRANDE    NOT AVBL
$$

AZZ503-504-507>509-100600-
SOUTHEAST ARIZONA

CITY           SKY/WX    TMP DP  RH WIND       PRES   REMARKS
TUCSON         MOCLDY    62  12  14 SE18G26   30.26F
DAVIS-MONTHAN  PTCLDY    53  11  19 E7        30.25S
NOGALES        CLOUDY    57  10  15 N7        30.27S
SIERRA VISTA   CLOUDY    44   9  24 SE8       30.36S
DOUGLAS        MOCLDY    52  12  20 E15       30.35S
SAFFORD        PTCLDY    53  14  21 E12       30.39R
$$

AZZ532-100600-
SOUTHWEST ARIZONA

CITY           SKY/WX    TMP DP  RH WIND       PRES   REMARKS
YUMA           MOCLDY    62  16  16 N3        30.20R
$$

CAZ041-043-047-048-061-525>527-560>570-100600-
SOUTHERN CALIFORNIA

CITY           SKY/WX    TMP DP  RH WIND       PRES   REMARKS
DOWNTOWN L.A.  PTCLDY    61  26  26 CALM      30.17R
L.A. AIRPORT   PTCLDY    72  13  10 CALM      30.17R
SAN DIEGO      PTCLDY    61  30  31 CALM      30.16R
BURBANK        PTCLDY    63  15  15 CALM      30.18R
ONTARIO        MOCLDY    73   1   6 NE13      30.19R
RIVERSIDE      PTCLDY    65  12  12 E3        30.23R
PALM SPRINGS   PTCLDY    62  19  19 VRB5      30.28S
EL CENTRO NAS  MOCLDY    50  10  20 NW6       30.24R
IMPERIAL       MOCLDY    52  17  25 W7        30.22S
BLYTHE         CLEAR     56  10  16 NE7       30.25R
NEEDLES        CLEAR     62   8  12 NW6       30.31R
$$

NVZ020-UTZ003-100600-
SOUTHERN NEVADA-UTAH

CITY           SKY/WX    TMP DP  RH WIND       PRES   REMARKS
LAS VEGAS      PTCLDY    49  11  21 SW8       30.38R
SALT LAKE CITY PTCLDY    27  23  85 CALM      30.64R
$$

NMZ009-TXZ055-100600-
NEW MEXICO-WEST TEXAS

CITY           SKY/WX    TMP DP  RH WIND       PRES   REMARKS
ALBUQUERQUE    CLOUDY    36   7  29 N9        30.48R WCI  29
EL PASO        PTCLDY    40  30  67 S3        30.47R
$$


........................KEY........................
SKY/WX - SKY CONDITION/WEATHER
TMP    - TEMPERATURE IN FAHRENHEIT
DP     - DEW POINT IN FAHRENHEIT
RH     - RELATIVE HUMIDITY IN PERCENT
WIND   - DIRECTION AND SPEED IN MILES PER HOUR (MPH)
VRB    - VARIABLE WIND DIRECTION
PRES   - MEAN SEA LEVEL PRESSURE IN INCHES OF MERCURY
         F - FALLING PRESSURE   R - RISING PRESSURE
         S - STEADY PRESSURE
VSB    - VISIBILITY IN MILES
HX     - HEAT INDEX IN FAHRENHEIT
WCI    - WIND CHILL INDEX IN FAHRENHEIT
TC     - TEMPERATURE IN CELSIUS WHICH IS ALSO KNOWN AS
         TEMPERATURE IN CENTIGRADE
AFB    - AIR FORCE BASE
         LUKE AFB IS LUKE AIR FORCE BASE
         DAVIS-MONTHAN IS DAVIS-MONTHAN AIR FORCE BASE
NAS    - NAVAL AIR STATION
         EL CENTRO NAS IS EL CENTRO NAVAL AIR STATION
N/A    - NOT AVAILABLE





USA.gov is the U.S. government's official web portal to all federal, state and local government web resources and services.